When you browse on this site, cookies collect data to enhance your experience and personalize the content and advertising you see.
Visit our Privacy Policy to learn more. By continuing to use the site, you agree to this use of cookies and data.
  • In Portugal
  • List of Countries
  • For 7 days
  • Water Temperature
  • Satellite Maps
  • Weather Map
  • Weather Widgets
  • user-avatar
    Login

    Hourly Weather Vidin

    Today, 25 March, Monday

    Time Temperature Precipitation Wind Pressure Humidity
    00:00 +13°C° 0 mm 1 mps 760 mmHg 43%
    01:00 +13°C° 0 mm 1 mps 760 mmHg 46%
    02:00 +12°C° 0 mm 1 mps 759 mmHg 49%
    03:00 +12°C° 0 mm 1 mps 759 mmHg 51%
    04:00 +11°C° 0 mm 1 mps 759 mmHg 53%
    05:00 +11°C° 0 mm 1 mps 758 mmHg 56%
    06:00 +12°C° 0 mm 1 mps 758 mmHg 55%
    07:00 +12°C° 0 mm 1 mps 758 mmHg 54%
    08:00 +13°C° 0 mm 1 mps 757 mmHg 53%
    09:00 +15°C° 0 mm 1 mps 757 mmHg 47%
    10:00 +18°C° 0 mm 1 mps 756 mmHg 41%
    11:00 +20°C° 0 mm 1 mps 756 mmHg 34%
    12:00 +20°C° 0 mm 2 mps 755 mmHg 31%
    13:00 +23°C° 0 mm 2 mps 755 mmHg 28%
    14:00 +24°C° 0 mm 3 mps 754 mmHg 25%
    15:00 +24°C° 0 mm 3 mps 754 mmHg 26%
    16:00 +24°C° 0 mm 3 mps 753 mmHg 27%
    17:00 +23°C° 0 mm 4 mps 753 mmHg 28%
    18:00 +20°C° 0 mm 4 mps 753 mmHg 34%
    19:00 +18°C° 0 mm 4 mps 753 mmHg 40%
    20:00 +15°C° 0 mm 4 mps 753 mmHg 46%
    21:00 +14°C° 0 mm 3 mps 753 mmHg 50%
    22:00 +14°C° 0 mm 3 mps 753 mmHg 55%
    23:00 +13°C° 0 mm 3 mps 754 mmHg 59%

    Tomorrow, 26 March, Tuesday

    Time Temperature Precipitation Wind Pressure Humidity
    00:00 +13°C° 0 mm 3 mps 754 mmHg 58%
    01:00 +13°C° 0 mm 4 mps 754 mmHg 56%
    02:00 +13°C° 0 mm 4 mps 755 mmHg 54%
    03:00 +12°C° 0 mm 5 mps 755 mmHg 55%
    04:00 +10°C° 0 mm 5 mps 756 mmHg 55%
    05:00 +10°C° 0 mm 6 mps 756 mmHg 55%
    06:00 +10°C° 0 mm 6 mps 757 mmHg 53%
    07:00 +10°C° 0 mm 7 mps 757 mmHg 52%
    08:00 +10°C° 0 mm 7 mps 758 mmHg 50%
    09:00 +11°C° 0 mm 7 mps 758 mmHg 46%
    10:00 +12°C° 0 mm 7 mps 759 mmHg 43%
    11:00 +14°C° 0 mm 7 mps 759 mmHg 39%
    12:00 +15°C° 0 mm 7 mps 759 mmHg 37%
    13:00 +15°C° 0 mm 7 mps 759 mmHg 35%
    14:00 +16°C° 0 mm 7 mps 759 mmHg 33%
    15:00 +16°C° 0 mm 6 mps 759 mmHg 33%
    16:00 +15°C° 0 mm 6 mps 759 mmHg 33%
    17:00 +15°C° 0 mm 6 mps 760 mmHg 32%
    18:00 +14°C° 0 mm 6 mps 760 mmHg 36%
    19:00 +12°C° 0 mm 5 mps 761 mmHg 39%
    20:00 +11°C° 0 mm 4 mps 762 mmHg 42%
    21:00 +11°C° 0 mm 4 mps 762 mmHg 45%
    22:00 +10°C° 0 mm 3 mps 762 mmHg 49%
    23:00 +10°C° 0 mm 2 mps 763 mmHg 52%

    Day after tomorrow, 27 March, Wednesday

    Time Temperature Precipitation Wind Pressure Humidity
    00:00 +9°C° 0 mm 2 mps 763 mmHg 53%
    01:00 +9°C° 0 mm 2 mps 763 mmHg 54%
    02:00 +8°C° 0 mm 2 mps 764 mmHg 55%
    03:00 +8°C° 0 mm 2 mps 764 mmHg 56%
    04:00 +8°C° 0 mm 2 mps 764 mmHg 57%
    05:00 +8°C° 0 mm 2 mps 764 mmHg 58%
    06:00 +8°C° 0 mm 2 mps 764 mmHg 56%
    07:00 +9°C° 0 mm 3 mps 764 mmHg 55%
    08:00 +9°C° 0 mm 3 mps 765 mmHg 53%
    09:00 +10°C° 0 mm 3 mps 765 mmHg 49%
    10:00 +11°C° 0 mm 3 mps 765 mmHg 44%
    11:00 +12°C° 0 mm 3 mps 765 mmHg 40%
    12:00 +13°C° 0 mm 3 mps 764 mmHg 36%
    13:00 +14°C° 0 mm 3 mps 764 mmHg 33%
    14:00 +16°C° 0 mm 3 mps 764 mmHg 29%
    15:00 +16°C° 0 mm 3 mps 764 mmHg 29%
    16:00 +16°C° 0 mm 3 mps 764 mmHg 29%
    17:00 +16°C° 0 mm 3 mps 764 mmHg 28%
    18:00 +14°C° 0 mm 3 mps 764 mmHg 33%
    19:00 +12°C° 0 mm 3 mps 765 mmHg 37%
    20:00 +10°C° 0 mm 3 mps 765 mmHg 42%
    21:00 +10°C° 0 mm 2 mps 765 mmHg 44%
    22:00 +9°C° 0 mm 2 mps 766 mmHg 45%
    23:00 +8°C° 0 mm 2 mps 766 mmHg 47%

    28 March, Thursday

    Time Temperature Precipitation Wind Pressure Humidity
    00:00 +8°C° 0 mm 2 mps 767 mmHg 52%
    01:00 +7°C° 0 mm 2 mps 767 mmHg 56%
    02:00 +7°C° 0 mm 3 mps 767 mmHg 61%
    03:00 +5°C° 0 mm 3 mps 767 mmHg 61%
    04:00 +5°C° 0 mm 3 mps 767 mmHg 62%
    05:00 +5°C° 0 mm 3 mps 768 mmHg 62%
    06:00 +5°C° 0 mm 3 mps 768 mmHg 60%
    07:00 +5°C° 0 mm 4 mps 768 mmHg 58%
    08:00 +5°C° 0 mm 4 mps 769 mmHg 56%
    09:00 +6°C° 0 mm 4 mps 769 mmHg 56%
    10:00 +6°C° 0 mm 4 mps 769 mmHg 57%
    11:00 +7°C° 0 mm 4 mps 769 mmHg 58%
    12:00 +7°C° 0 mm 4 mps 769 mmHg 57%
    13:00 +9°C° 0 mm 3 mps 768 mmHg 57%
    14:00 +9°C° 0 mm 3 mps 768 mmHg 56%
    15:00 +10°C° 0 mm 3 mps 768 mmHg 55%
    16:00 +11°C° 0 mm 3 mps 767 mmHg 53%
    17:00 +11°C° 0 mm 3 mps 767 mmHg 51%
    18:00 +10°C° 0 mm 3 mps 768 mmHg 54%
    19:00 +9°C° 0 mm 3 mps 768 mmHg 57%
    20:00 +8°C° 0 mm 2 mps 768 mmHg 61%
    21:00 +7°C° 0 mm 3 mps 769 mmHg 60%
    22:00 +7°C° 0 mm 3 mps 769 mmHg 58%
    23:00 +5°C° 0 mm 3 mps 770 mmHg 57%

    29 March, Friday

    Time Temperature Precipitation Wind Pressure Humidity
    00:00 +5°C° 0 mm 3 mps 770 mmHg 55%
    01:00 +5°C° 0 mm 2 mps 770 mmHg 53%
    02:00 +5°C° 0 mm 2 mps 770 mmHg 51%
    03:00 +4°C° 0 mm 2 mps 771 mmHg 52%
    04:00 +4°C° 0 mm 2 mps 771 mmHg 53%
    05:00 +4°C° 0 mm 1 mps 771 mmHg 53%
    06:00 +5°C° 0 mm 1 mps 771 mmHg 52%
    07:00 +5°C° 0 mm 1 mps 771 mmHg 51%
    08:00 +6°C° 0 mm 1 mps 771 mmHg 50%
    09:00 +6°C° 0 mm 2 mps 771 mmHg 46%
    10:00 +8°C° 0 mm 3 mps 771 mmHg 41%
    11:00 +10°C° 0 mm 4 mps 771 mmHg 36%
    12:00 +10°C° 0 mm 4 mps 770 mmHg 35%
    13:00 +11°C° 0 mm 4 mps 769 mmHg 33%
    14:00 +12°C° 0 mm 4 mps 769 mmHg 32%
    15:00 +12°C° 0 mm 4 mps 768 mmHg 32%
    16:00 +12°C° 0 mm 4 mps 768 mmHg 33%
    17:00 +12°C° 0 mm 4 mps 768 mmHg 34%
    18:00 +10°C° 0 mm 3 mps 768 mmHg 38%
    19:00 +9°C° 0 mm 3 mps 768 mmHg 42%
    20:00 +8°C° 0 mm 2 mps 769 mmHg 46%
    21:00 +7°C° 0 mm 2 mps 769 mmHg 47%
    22:00 +7°C° 0 mm 1 mps 769 mmHg 48%
    23:00 +7°C° 0 mm 1 mps 769 mmHg 48%

    30 March, Saturday

    Time Temperature Precipitation Wind Pressure Humidity
    00:00 +6°C° 0 mm 1 mps 769 mmHg 49%
    01:00 +6°C° 0 mm 1 mps 769 mmHg 50%
    02:00 +6°C° 0 mm 1 mps 769 mmHg 51%
    03:00 +6°C° 0 mm 1 mps 768 mmHg 52%
    04:00 +5°C° 0 mm 1 mps 768 mmHg 53%
    05:00 +5°C° 0 mm 1 mps 768 mmHg 53%
    06:00 +6°C° 0 mm 1 mps 768 mmHg 52%
    07:00 +7°C° 0 mm 1 mps 768 mmHg 50%
    08:00 +7°C° 0 mm 1 mps 768 mmHg 49%
    09:00 +9°C° 0 mm 1 mps 767 mmHg 44%
    10:00 +11°C° 0 mm 1 mps 767 mmHg 40%
    11:00 +12°C° 0 mm 1 mps 766 mmHg 35%
    12:00 +13°C° 0 mm 1 mps 766 mmHg 34%
    13:00 +14°C° 0 mm 1 mps 765 mmHg 33%
    14:00 +14°C° 0 mm 0 mps 764 mmHg 31%
    15:00 +15°C° 0 mm 1 mps 763 mmHg 31%
    16:00 +15°C° 0 mm 1 mps 763 mmHg 31%
    17:00 +15°C° 0 mm 1 mps 762 mmHg 31%
    18:00 +14°C° 0 mm 1 mps 762 mmHg 35%
    19:00 +12°C° 0 mm 2 mps 763 mmHg 39%
    20:00 +10°C° 0 mm 3 mps 763 mmHg 43%
    21:00 +10°C° 0 mm 2 mps 763 mmHg 43%
    22:00 +10°C° 0 mm 2 mps 763 mmHg 43%
    23:00 +10°C° 0 mm 2 mps 763 mmHg 42%
    Show more